Hourly Data Report for November 16, 2006

TORONTO CITY
ONTARIO

43°40'00.000" N
79°24'00.000" W
112.50 m
6158355
71508
XTO

Download Data

Hourly Data (November 2006)
Hourly Data Report for November 16, 2006
TIME
LST
Temp Definition
°C
Dew Point Definition
°C
Rel Hum Definition
%
Precip. Amount Definition
mm

Wind Dir Definition
10's deg

Wind Spd Definition
km/h
Visibility Definition
km
Stn Press Definition
kPa
Hmdx Definition


Wind Chill Definition


Weather Definition


00:00 7.1 6.3 95   LegendMM LegendMM   99.58     LegendNANA
01:00 7.2 6.7 97   LegendMM LegendMM   99.47     LegendNANA
02:00 7.7 7.4 98   LegendMM LegendMM   99.38     LegendNANA
03:00 8.5 8.3 99   LegendMM LegendMM   99.25     LegendNANA
04:00 8.9 8.8 99   LegendMM LegendMM   99.12     LegendNANA
05:00 9.4 9.3 99   LegendMM LegendMM   99.04     LegendNANA
06:00 10.0 9.9 99   LegendMM LegendMM   98.96     LegendNANA
07:00 10.4 10.2 99   LegendMM LegendMM   98.86     LegendNANA
08:00 10.7 10.1 96   LegendMM LegendMM   98.75     LegendNANA
09:00 11.0 10.4 96   LegendMM LegendMM   98.69     LegendNANA
10:00 11.0 10.6 97   LegendMM LegendMM   98.58     LegendNANA
11:00 11.4 11.1 98   LegendMM LegendMM   98.48     LegendNANA
12:00 11.7 11.3 97   LegendMM LegendMM   98.37     LegendNANA
13:00 11.6 11.3 98   LegendMM LegendMM   98.30     LegendNANA
14:00 12.0 11.8 99   LegendMM LegendMM   98.11     LegendNANA
15:00 12.9 12.8 99   LegendMM LegendMM   97.85     LegendNANA
16:00 13.4 13.2 99   LegendMM LegendMM   97.86     LegendNANA
17:00 13.6 13.4 99   LegendMM LegendMM   97.88     LegendNANA
18:00 13.1 12.9 99   LegendMM LegendMM   97.92     LegendNANA
19:00 13.0 12.9 99   LegendMM LegendMM   97.96     LegendNANA
20:00 13.1 13.0 99   LegendMM LegendMM   97.98     LegendNANA
21:00 12.2 12.1 99   LegendMM LegendMM   97.98     LegendNANA
22:00 10.6 10.5 99   LegendMM LegendMM   98.02     LegendNANA
23:00 9.5 9.5 100   LegendMM LegendMM   98.09     LegendNANA

Notes on Data Quality.

Legend

  • E = Estimated
  • M = Missing
  • NA = Not Available*
  • [empty] = Indicates an unobserved value
Date modified: